Stations météo

réclame
Mon MeteoGroup
Don Benito, Espagne (8333): Température de l'air & dewpoint: 12.08.2018 02:00:00 - 18.08.2018 02:00:00 (CEST)Don Benito, Espagne (8333): Vitesse du vent & gusts: 12.08.2018 02:00:00 - 18.08.2018 02:00:00 (CEST)Don Benito, Espagne (8333): Direction du vent: 12.08.2018 02:00:00 - 18.08.2018 02:00:00 (CEST)Don Benito, Espagne (8333): reduced air pressure: 12.08.2018 02:00:00 - 18.08.2018 02:00:00 (CEST)Don Benito, Espagne (8333): visibility: 12.08.2018 02:00:00 - 18.08.2018 02:00:00 (CEST)Don Benito, Espagne (8333): Ensoleillement: 12.08.2018 02:00:00 - 18.08.2018 02:00:00 (CEST)Don Benito, Espagne (8333): Quantités de précipitations: 12.08.2018 02:00:00 - 18.08.2018 02:00:00 (CEST)
Date & Time tt [°C] td [°C] ff [km/h] ff [knt] fx [km/h] fx [knt] dd ppp [hPa] vv [km] sd [min] rr [mm]
18.08.2018 02:00:00 23,5 9,8 5 3 10 5 SW 1014,8 20 0 -
18.08.2018 01:00:00 24,2 9,3 4 2 8 5 SSW 1014,6 20 0 0,0
18.08.2018 00:00:00 25,4 10,4 4 2 8 4 SW 1014,3 3,8 0 0,0
17.08.2018 23:00:00 26,6 11,4 5 3 8 4 SW 1013,9 15 0 0,0
17.08.2018 22:00:00 28,2 9,9 3 1 8 5 WSW 1013,1 20 0 0,0
17.08.2018 21:00:00 30,5 9,4 4 2 16 9 W 1012,7 20 31 0,0
17.08.2018 20:00:00 33,0 7,0 9 5 16 9 NW 1012,2 20 60 -
17.08.2018 19:00:00 33,1 9,2 6 3 19 10 WNW 1012,0 20 55 0,0
17.08.2018 18:00:00 32,6 10,6 9 5 22 12 NW 1012,5 20 60 0,0
17.08.2018 17:00:00 33,2 11,1 9 5 25 14 NNW 1013,0 20 60 0,0
17.08.2018 16:00:00 32,5 12,2 9 5 18 10 NW 1014,0 20 60 0,0
17.08.2018 15:00:00 31,2 12,5 5 3 17 9 NNW 1014,9 20 60 0,0
17.08.2018 14:00:00 29,5 13,7 9 5 15 8 NNW 1015,3 20 60 -
17.08.2018 13:00:00 29,1 14,1 5 3 14 8 NNE 1015,9 20 60 0,0
17.08.2018 12:00:00 26,4 14,8 5 3 11 6 NE 1016,3 20 60 0,0
17.08.2018 11:00:00 23,7 14,4 4 2 10 5 NW 1016,5 15 60 0,0
17.08.2018 10:00:00 21,7 14,8 3 1 8 4 W 1016,6 20 60 0,0
17.08.2018 09:00:00 19,3 14,3 4 2 10 5 S 1016,4 20 28 0,0
17.08.2018 08:00:00 18,7 14,4 2 1 7 4 S 1016,1 18 0 -
17.08.2018 07:00:00 19,1 14,5 3 1 10 5 S 1015,1 20 0 0,0
17.08.2018 06:00:00 19,9 14,2 4 2 11 6 WSW 1014,8 20 0 0,0
17.08.2018 05:00:00 20,5 14,1 4 2 10 5 W 1014,9 20 0 0,0
17.08.2018 04:00:00 21,4 13,9 3 1 10 6 W 1015,2 20 0 0,0
17.08.2018 03:00:00 23,1 11,4 4 2 24 13 WNW 1015,0 20 0 0,0
17.08.2018 02:00:00 25,7 12,5 8 4 32 17 S 1014,8 20 0 -
17.08.2018 01:00:00 26,6 12,2 15 8 29 16 ESE 1014,9 17 0 0,0
17.08.2018 00:00:00 25,7 12,5 6 3 14 8 WSW 1013,4 20 0 0,0
16.08.2018 23:00:00 26,6 12,6 6 3 14 8 SW 1012,8 20 0 0,0
16.08.2018 22:00:00 28,4 12,7 4 2 13 7 WSW 1012,1 20 0 0,0
16.08.2018 21:00:00 31,3 12,1 7 4 18 10 WSW 1011,3 20 33 0,0
16.08.2018 20:00:00 - - - - - - - - - - -
16.08.2018 19:00:00 34,2 10,8 10 6 29 16 W 1011,2 20 60 0,0
16.08.2018 18:00:00 34,4 10,3 10 5 24 13 W 1011,6 20 60 0,0
16.08.2018 17:00:00 34,0 10,5 10 5 29 16 WNW 1011,8 20 60 0,0
16.08.2018 16:00:00 33,4 10,6 11 6 29 15 W 1012,6 20 60 0,0
16.08.2018 15:00:00 32,5 11,7 10 5 24 13 WNW 1013,6 20 60 0,0
16.08.2018 14:00:00 31,5 11,3 9 5 23 12 W 1014,1 20 60 -
16.08.2018 13:00:00 29,3 11,3 9 5 20 11 NW 1015,0 20 60 0,0
16.08.2018 12:00:00 27,2 9,9 8 4 16 9 NNW 1015,3 18 60 0,0
16.08.2018 11:00:00 27,1 8,5 3 2 12 7 SSE 1015,1 20 60 0,0
16.08.2018 10:00:00 24,1 10,4 5 3 10 5 WSW 1015,5 20 60 0,0
16.08.2018 09:00:00 21,2 10,6 4 2 9 5 NW 1015,4 20 31 0,0
16.08.2018 08:00:00 20,0 10,4 4 2 8 4 WNW 1015,1 20 0 -
16.08.2018 07:00:00 20,2 10,9 4 2 10 5 WNW 1014,7 20 0 0,0
16.08.2018 06:00:00 21,6 9,4 6 3 14 7 SSW 1014,5 20 0 0,0
16.08.2018 05:00:00 21,9 9,8 8 4 13 7 SW 1014,6 20 0 0,0
16.08.2018 04:00:00 23,0 10,8 4 2 9 5 WSW 1014,6 20 0 0,0
16.08.2018 03:00:00 24,5 11,1 6 3 20 11 SW 1014,3 20 0 0,0
16.08.2018 02:00:00 25,7 10,6 10 5 27 14 WSW 1014,0 20 0 -
16.08.2018 01:00:00 25,1 10,5 8 4 16 9 SW 1013,8 20 0 0,0
16.08.2018 00:00:00 26,5 8,9 10 6 18 10 SW 1013,3 20 0 0,0
15.08.2018 23:00:00 27,7 9,6 7 4 14 8 SSW 1012,7 20 0 0,0
15.08.2018 22:00:00 29,1 11,2 6 4 14 8 SW 1011,9 20 0 0,0
15.08.2018 21:00:00 32,7 11,8 5 3 12 6 WSW 1011,1 20 32 0,0
15.08.2018 20:00:00 35,7 6,8 3 2 15 8 W 1010,6 20 60 -
15.08.2018 19:00:00 35,0 9,4 6 4 18 10 N 1010,8 20 60 0,0
15.08.2018 18:00:00 35,3 11,0 6 3 21 11 NNE 1011,2 20 60 0,0
15.08.2018 17:00:00 35,0 10,8 7 4 20 11 N 1011,7 20 60 0,0
15.08.2018 16:00:00 34,5 11,6 6 3 17 9 NNW 1012,4 20 60 0,0
15.08.2018 15:00:00 33,2 14,2 7 4 18 10 N 1013,2 20 60 0,0
15.08.2018 14:00:00 31,5 14,1 4 2 18 10 N 1014,1 20 60 -
15.08.2018 13:00:00 29,6 14,1 5 3 13 7 N 1014,8 18 60 0,0
15.08.2018 12:00:00 27,8 14,4 4 2 10 6 NNE 1015,2 17 60 0,0
15.08.2018 11:00:00 25,1 14,2 5 3 15 8 W 1015,4 20 60 0,0
15.08.2018 10:00:00 22,9 14,2 6 4 13 7 W 1015,5 20 60 0,0
15.08.2018 09:00:00 20,8 13,8 5 3 10 6 WSW 1015,4 20 30 0,0
15.08.2018 08:00:00 19,4 12,2 6 3 11 6 WSW 1014,9 20 0 -
15.08.2018 07:00:00 20,2 11,4 5 3 14 8 SW 1014,6 20 0 0,0
15.08.2018 06:00:00 20,4 11,6 6 4 15 8 SW 1014,5 20 0 0,0
15.08.2018 05:00:00 20,6 10,6 6 3 17 9 SSW 1014,4 20 0 0,0
15.08.2018 04:00:00 21,5 9,7 8 4 16 8 WSW 1014,7 20 0 0,0
15.08.2018 03:00:00 22,4 8,1 6 3 12 6 WSW 1014,8 20 0 0,0
15.08.2018 02:00:00 23,4 6,2 4 2 14 8 WSW 1015,0 20 0 -
15.08.2018 01:00:00 24,1 5,5 6 4 14 7 SSW 1014,5 20 0 0,0
15.08.2018 00:00:00 25,1 5,8 7 4 12 7 SSW 1014,3 20 0 0,0
14.08.2018 23:00:00 26,5 7,0 5 3 11 6 WSW 1014,0 20 0 0,0
14.08.2018 22:00:00 28,8 9,0 3 2 16 8 SSW 1013,1 20 0 0,0
14.08.2018 21:00:00 32,7 5,3 4 2 8 4 W 1012,5 19 33 0,0
14.08.2018 20:00:00 35,4 0,4 4 2 13 7 WNW 1012,2 20 60 -
14.08.2018 19:00:00 34,6 4,1 6 4 16 8 N 1012,8 20 60 0,0
14.08.2018 18:00:00 34,9 4,5 8 4 18 10 NW 1013,1 20 60 0,0
14.08.2018 17:00:00 33,8 8,4 7 4 18 10 NW 1013,5 20 60 0,0
14.08.2018 16:00:00 33,0 10,4 6 3 16 8 NNW 1014,2 20 60 0,0
14.08.2018 15:00:00 31,2 11,6 6 4 13 7 N 1014,9 20 60 0,0
14.08.2018 14:00:00 29,1 11,7 5 3 14 8 NNW 1015,7 20 60 -
14.08.2018 13:00:00 26,8 11,3 6 3 13 7 NW 1016,4 20 60 0,0
14.08.2018 12:00:00 25,2 11,8 4 2 10 6 W 1016,5 20 60 0,0
14.08.2018 11:00:00 22,3 12,8 4 2 11 6 W 1016,7 20 60 0,0
14.08.2018 10:00:00 19,8 13,5 5 3 13 7 WSW 1016,9 20 60 0,0
14.08.2018 09:00:00 17,1 12,8 6 3 14 7 SW 1017,0 20 28 0,0
14.08.2018 08:00:00 16,0 12,2 5 3 13 7 SW 1016,6 20 0 -
14.08.2018 07:00:00 16,4 12,3 7 4 14 8 SW 1016,0 20 0 0,0
14.08.2018 06:00:00 17,3 12,6 8 4 15 8 WSW 1015,5 20 0 0,0
14.08.2018 05:00:00 18,3 12,3 6 4 16 9 WSW 1015,4 20 0 0,0
14.08.2018 04:00:00 19,3 11,8 8 5 21 11 WSW 1015,2 20 0 0,0
14.08.2018 03:00:00 20,8 11,4 11 6 24 13 WSW 1014,9 20 0 0,0
14.08.2018 02:00:00 21,5 10,3 10 5 21 11 WSW 1014,7 20 0 -
14.08.2018 01:00:00 22,1 9,6 8 5 17 9 SW 1014,3 20 0 0,0
14.08.2018 00:00:00 23,6 8,8 7 4 14 8 SW 1013,7 20 0 0,0
13.08.2018 23:00:00 25,7 7,3 5 3 19 10 WSW 1013,2 20 0 0,0
13.08.2018 22:00:00 27,8 7,1 8 5 18 10 WSW 1012,0 20 0 0,0
13.08.2018 21:00:00 30,9 8,0 8 4 18 10 WSW 1011,2 20 34 0,0
13.08.2018 20:00:00 33,0 8,4 10 5 26 14 WSW 1010,9 20 60 -
13.08.2018 19:00:00 33,6 7,6 13 7 27 15 WSW 1011,2 20 60 0,0
13.08.2018 18:00:00 33,6 5,1 13 7 26 14 SW 1011,7 20 60 0,0
13.08.2018 17:00:00 33,1 8,5 11 6 24 13 WSW 1012,2 20 60 0,0
13.08.2018 16:00:00 31,7 11,0 10 5 29 16 WSW 1013,0 20 60 0,0
13.08.2018 15:00:00 30,6 12,5 11 6 26 14 WSW 1013,6 20 60 0,0
13.08.2018 14:00:00 29,0 14,4 10 5 25 13 WSW 1014,3 20 60 -
13.08.2018 13:00:00 27,2 14,9 10 5 24 13 W 1015,0 20 60 0,0
13.08.2018 12:00:00 25,2 15,8 11 6 23 13 WSW 1015,5 20 60 0,0
13.08.2018 11:00:00 23,3 15,9 13 7 24 13 WSW 1015,7 20 60 0,0
13.08.2018 10:00:00 21,0 16,0 12 6 26 14 WSW 1015,8 20 60 0,0
13.08.2018 09:00:00 18,7 16,0 10 5 22 12 WSW 1015,5 20 22 0,0
13.08.2018 08:00:00 17,8 15,1 8 5 17 9 SW 1015,1 20 0 -
13.08.2018 07:00:00 18,2 14,7 11 6 25 14 WSW 1014,4 20 0 0,0
13.08.2018 06:00:00 19,0 14,9 10 5 27 15 WSW 1014,2 20 0 0,0
13.08.2018 05:00:00 19,5 14,1 10 5 18 10 WSW 1014,3 20 0 0,0
13.08.2018 04:00:00 20,6 14,2 10 5 18 10 SW 1014,2 20 0 0,0
13.08.2018 03:00:00 22,1 14,2 6 3 16 9 WSW 1014,0 20 0 0,0
13.08.2018 02:00:00 23,0 13,8 8 5 17 9 SSW 1014,2 20 0 -
13.08.2018 01:00:00 23,9 11,9 7 4 14 8 SW 1013,8 20 0 0,0
13.08.2018 00:00:00 25,1 10,2 5 3 13 7 WSW 1013,4 20 0 0,0
12.08.2018 23:00:00 27,2 9,0 5 3 16 9 WSW 1012,7 20 0 0,0
12.08.2018 22:00:00 29,1 8,8 6 3 19 11 W 1011,8 16 0 0,0
12.08.2018 21:00:00 31,5 9,7 6 3 21 11 W 1011,1 20 31 0,0
12.08.2018 20:00:00 34,3 8,1 7 4 24 13 W 1010,7 20 60 -
12.08.2018 19:00:00 36,4 5,6 9 5 31 17 W 1010,6 20 60 0,0
12.08.2018 18:00:00 37,0 6,1 9 5 30 16 W 1011,1 20 60 0,0
12.08.2018 17:00:00 37,0 6,1 11 6 28 15 WNW 1011,5 20 60 0,0
12.08.2018 16:00:00 36,4 7,4 10 5 26 14 W 1012,2 20 60 0,0
12.08.2018 15:00:00 35,1 9,6 9 5 19 11 W 1013,2 20 60 0,0
12.08.2018 14:00:00 33,7 10,3 7 4 18 10 W 1013,9 20 60 -
12.08.2018 13:00:00 31,4 10,6 8 4 19 10 NW 1014,6 20 60 0,0
12.08.2018 12:00:00 29,9 10,9 5 3 13 7 WNW 1015,0 20 60 0,0
12.08.2018 11:00:00 28,0 8,8 5 3 11 6 W 1015,3 20 60 0,0
12.08.2018 10:00:00 25,4 10,4 4 2 9 5 W 1015,5 20 60 0,0
12.08.2018 09:00:00 22,1 10,3 2 1 11 6 SSW 1015,6 20 25 0,0
12.08.2018 08:00:00 20,9 11,0 4 2 10 6 SSW 1015,4 20 0 -
12.08.2018 07:00:00 22,1 10,3 4 2 12 6 WSW 1014,8 20 0 0,0
12.08.2018 06:00:00 22,2 11,0 5 3 13 7 SW 1014,7 20 0 0,0
12.08.2018 05:00:00 23,4 10,0 7 4 15 8 WSW 1014,6 20 0 0,0
12.08.2018 04:00:00 23,8 9,4 8 5 16 9 SW 1014,6 20 0 0,0
12.08.2018 03:00:00 25,0 11,2 6 4 11 6 SW 1014,6 20 0 0,0
12.08.2018 02:00:00 26,8 8,7 4 2 17 9 SW 1015,0 20 0 -

tt = Température de l'air
td = dewpoint
ff = Vitesse du vent
fx = gusts
dd = Direction du vent
ppp = reduced air pressure
vv = visibility
sd = Ensoleillement
rr = Quantités de précipitations

stations d'obs. à proximité